Regional Weather Roundup
Issued by NWS Bismarck, ND

Home | Current Version | Previous Version | Text Only | Print | Product List | Glossary On
Versions: 1 2 3 4 5 6 7 8 9 10 11 12 13 14 15 16 17 18 19 20 21 22 23 24 25 26 27 28 29 30 31 32 33 34 35 36 37 38 39 40 41 42 43 44 45 46 47 48 49 50
000
ASUS43 KBIS 241002
RWRBIS

NWR BROADCAST TEXT
NATIONAL WEATHER SERVICE BISMARCK ND
500 AM CDT FRI MAR 24 2017

NOTE: "FAIR" INDICATES FEW OR NO CLOUDS BELOW 12,000 FEET WITH NO
SIGNIFICANT WEATHER AND/OR OBSTRUCTIONS TO VISIBILITY.


CITY           SKY/WX    TMP DP  RH WIND       PRES   REMARKS
WILLISTON      FAIR      26  24  92 CALM      30.05R
MINOT          FAIR      26  23  88 CALM      30.04R
MINOT AFB      FAIR      28  24  88 N5        30.04R
BISMARCK       FAIR      30  28  92 NW3       30.01R FOG
DICKINSON      FOG       32  32 100 CALM      29.98R VSB 1/4
GARRISON         N/A     28  26  92 N6        30.02S
HETTINGER ARPT FAIR      32  30  92 NW6       30.00R
JAMESTOWN      FAIR      32  30  92 N9        29.97R
HAZEN          FAIR      21  21 100 CALM      30.05R
MANDAN         PTSUNNY   30  30 100 NW8       30.00R
RUGBY            N/A     23  23 100 NE3       30.05R
STANLEY        FAIR      28  30 100 CALM      30.07R
TIOGA          FAIR      27  27 100 E6        30.05R FOG     WCI  20
WATFORD CITY   FAIR      30  30 100 CALM      30.03R
$$

CITY           SKY/WX    TMP DP  RH WIND       PRES   REMARKS
GRAND FORKS    FAIR      32  31  96 N13       30.00R
GRAND FORKS AF FAIR      31  30  96 N13       30.01R
DEVILS LAKE    FAIR      28  26  92 NE8       30.04R WCI  20
FARGO          CLOUDY    34  34 100 N5        29.95R FOG
GRAFTON        FAIR      28  28 100 N15       30.05R WCI  17
GWINNER        FOG       34  34 100 MISG      29.94R VSB 1/2
LANGDON        FAIR      25  25 100 N9        30.04R WCI  15
ROLLA          CLOUDY    27  27 100 NE7       30.07R WCI  19
$$

CITY           SKY/WX    TMP DP  RH WIND       PRES   REMARKS
ABERDEEN       CLOUDY    35  32  88 N7        29.96R FOG
MOBRIDGE       FAIR      37  32  82 NW7       29.94R
BUFFALO          N/A     37  35  92 NW10      29.91S
RAPID CITY     CLOUDY    42  37  82 NW8       30.00R
GLASGOW        FAIR      33  27  78 N9        29.98R
SIDNEY         FAIR      33  31  92 N7        30.03R
WOLF POINT     FAIR      30  28  92 E6        30.02R
GLENDIVE       FAIR      34  30  85 CALM      30.02R
MILES CITY     FAIR      35  32  88 S6        30.03R
BAKER          FAIR      35  31  85 W8        30.00S
$$

CITY           SKY/WX    TMP DP  RH WIND       PRES   REMARKS
BILLINGS       FAIR      38  33  82 SW9       30.04R
GREAT FALLS    FAIR      28  17  63 CALM      30.01S
$$




USA.gov is the U.S. government's official web portal to all federal, state and local government web resources and services.